Flag for Canada Weather past 2 weeks in Montreal, Quebec, Canada

Now
19 °F

Light snow. Mostly cloudy.


Feels Like: 7 °F
Forecast: 11 / 26 °F
Wind: 12 mph from West

Location: Montreal - Pierre Elliot Trudeau International Aiport

Current Time: Mar 2, 2015 at 8:15:33 AM

Latest Report: Mar 2, 2015 at 7:00 AM


Visibility: 10 mi

Pressure: 29.98 "Hg

Humidity: 86%

Dew point: 16 °F

Location of MontrealLocation

Historic Weather in Montreal — Graph

°F

Montreal temperature yesterday

Maximum temperature yesterday: 25 °F (at 3:00 PM)
Minimum temperature yesterday: 3 °F (at 5:00 AM)
Average temperature yesterday: 17 °F

Past Weeks' High & Low Weather Summary

 TemperatureHumidityPressure
High25 °F (Feb 22, 1:00 PM)92% (Feb 22, 7:00 AM)30.74 "Hg (Feb 22, 7:00 AM)
Low-13 °F (Feb 24, 1:00 AM)41% (Feb 27, 3:00 PM)29.64 "Hg (Feb 25, 4:00 AM)
Average7 °F61%30.12 "Hg
* Reported Feb 15 7:00 AM — Mar 2 7:00 AM, Montreal, Weather by CustomWeather, © 2015

Note: Actual official high and low records may vary slightly from our data, if they occured in-between our weather recording intervals... More about our weather records

Advertising

Montreal weather history for previous 24 hours

 ConditionsComfort  
Time TempWeatherWind HumidityBarometerVisibility
7:00 AM
Mon, Mar 2
19 °FLight snow. Mostly cloudy.12 mph86%29.98 "Hg10 mi
6:00 AM21 °FLight snow. Mostly cloudy.13 mph80%29.98 "Hg10 mi
5:00 AM21 °FLight snow. Overcast.10 mph86%29.98 "Hg10 mi
4:00 AM21 °FLight snow. Mostly cloudy.10 mph86%29.98 "Hg10 mi
3:52 AM21 °FLight snow. Overcast.10 mph86%29.98 "Hg5 mi
3:00 AM21 °FLight snow. Overcast.12 mph86%29.99 "Hg3 mi
2:00 AM21 °FLight snow. Overcast.6 mph86%30.03 "Hg4 mi
1:50 AM21 °FLight snow. Overcast.5 mph86%30.03 "Hg2 mi
1:00 AM21 °FLight snow. Overcast.5 mph86%30.03 "Hg15 mi
12:00 AM19 °FLight snow. Overcast.3 mph86%30.06 "Hg15 mi
11:00 PM
Sun, Mar 1
21 °FLight snow. Overcast.6 mph80%30.09 "Hg10 mi
10:00 PM21 °FLight snow. Overcast.5 mph80%30.11 "Hg8 mi
9:00 PM23 °FLight snow. Overcast.2 mph68%30.14 "Hg8 mi
8:00 PM23 °FLight snow. Overcast.2 mph68%30.15 "Hg6 mi
7:00 PM25 °FLight snow. Overcast.6 mph54%30.17 "Hg12 mi
6:00 PM25 °FOvercast.5 mph54%30.19 "Hg15 mi
5:00 PM25 °FMostly cloudy.2 mph50%30.22 "Hg15 mi
4:00 PM25 °FMostly cloudy.3 mph50%30.25 "Hg15 mi
3:00 PM25 °FMore clouds than sun.6 mph46%30.28 "Hg15 mi
2:00 PM23 °FOvercast.7 mph50%30.32 "Hg15 mi
1:00 PM23 °FOvercast.7 mph54%30.37 "Hg30 mi
12:00 PM21 °FMostly cloudy.6 mph58%30.44 "Hg30 mi
11:00 AM19 °FMostly cloudy.7 mph58%30.48 "Hg30 mi
10:00 AM18 °FMore clouds than sun.7 mph58%30.52 "Hg30 mi
9:00 AM12 °FMostly cloudy.2 mph73%30.56 "Hg15 mi
8:00 AM9 °FPartly sunny.No wind78%30.60 "Hg15 mi
Weather by CustomWeather, © 2015

See weather overviewHow to use our weather pages